owner,sensor,date,latitude,longitude,vertical_datum,mass_concentration_of_oxygen_in_sea_water,qcFlag 
SCCF RECON,ioos:station:SCCF:16:1,2010-08-01T00:00:00Z,26.4345,-81.9647,2.411,6.39,1111122 
SCCF RECON,ioos:station:SCCF:16:1,2010-08-01T01:00:00Z,26.4345,-81.9647,2.343,6.43,1111122 
SCCF RECON,ioos:station:SCCF:16:1,2010-08-01T02:00:00Z,26.4345,-81.9647,2.284,6.4,1111122 
SCCF RECON,ioos:station:SCCF:16:1,2010-08-01T03:00:00Z,26.4345,-81.9647,2.285,5.91,1111122 
SCCF RECON,ioos:station:SCCF:16:1,2010-08-01T04:00:00Z,26.4345,-81.9647,2.341,6.12,1111122 
SCCF RECON,ioos:station:SCCF:16:1,2010-08-01T05:00:00Z,26.4345,-81.9647,2.464,5.7,1111122 
SCCF RECON,ioos:station:SCCF:16:1,2010-08-01T06:00:00Z,26.4345,-81.9647,2.625,6.15,1111122 
SCCF RECON,ioos:station:SCCF:16:1,2010-08-01T07:00:00Z,26.4345,-81.9647,2.702,6.14,1111122 
SCCF RECON,ioos:station:SCCF:16:1,2010-08-01T08:00:00Z,26.4345,-81.9647,2.75,5.95,1111122 
SCCF RECON,ioos:station:SCCF:16:1,2010-08-01T09:00:00Z,26.4345,-81.9647,2.754,5.7,1111122 
SCCF RECON,ioos:station:SCCF:16:1,2010-08-01T10:00:00Z,26.4345,-81.9647,2.686,5.33,1111122 
SCCF RECON,ioos:station:SCCF:16:1,2010-08-01T11:00:00Z,26.4345,-81.9647,2.585,5.19,1111122 
SCCF RECON,ioos:station:SCCF:16:1,2010-08-01T12:00:00Z,26.4345,-81.9647,2.448,5.15,1111122 
SCCF RECON,ioos:station:SCCF:16:1,2010-08-01T13:00:00Z,26.4345,-81.9647,2.378,5.53,1111122 
SCCF RECON,ioos:station:SCCF:16:1,2010-08-01T14:00:00Z,26.4345,-81.9647,2.311,5.33,1111122 
SCCF RECON,ioos:station:SCCF:16:1,2010-08-01T15:00:00Z,26.4345,-81.9647,2.253,5.41,1111122 
SCCF RECON,ioos:station:SCCF:16:1,2010-08-01T16:00:00Z,26.4345,-81.9647,2.225,5.33,1111122 
SCCF RECON,ioos:station:SCCF:16:1,2010-08-01T17:00:00Z,26.4345,-81.9647,2.283,5.4,1111122 
SCCF RECON,ioos:station:SCCF:16:1,2010-08-01T18:00:00Z,26.4345,-81.9647,2.398,5.18,1111122 
SCCF RECON,ioos:station:SCCF:16:1,2010-08-01T19:00:00Z,26.4345,-81.9647,2.527,5.74,1111122 
SCCF RECON,ioos:station:SCCF:16:1,2010-08-01T20:00:00Z,26.4345,-81.9647,2.605,6.37,1111122 
SCCF RECON,ioos:station:SCCF:16:1,2010-08-01T21:00:00Z,26.4345,-81.9647,2.619,6.11,1111122 
SCCF RECON,ioos:station:SCCF:16:1,2010-08-01T22:00:00Z,26.4345,-81.9647,2.606,6.37,1111122 
SCCF RECON,ioos:station:SCCF:16:1,2010-08-01T23:00:00Z,26.4345,-81.9647,2.568,5.67,1111122 
SCCF RECON,ioos:station:SCCF:16:1,2010-08-02T00:00:00Z,26.4345,-81.9647,2.535,5.96,1111122 
SCCF RECON,ioos:station:SCCF:16:1,2010-08-02T01:00:00Z,26.4345,-81.9647,2.475,6.01,1111122 
SCCF RECON,ioos:station:SCCF:16:1,2010-08-02T02:00:00Z,26.4345,-81.9647,2.427,6.39,1111122 
SCCF RECON,ioos:station:SCCF:16:1,2010-08-02T03:00:00Z,26.4345,-81.9647,2.356,6.19,1111122 
SCCF RECON,ioos:station:SCCF:16:1,2010-08-02T04:00:00Z,26.4345,-81.9647,2.361,6.21,1111122 
SCCF RECON,ioos:station:SCCF:16:1,2010-08-02T05:00:00Z,26.4345,-81.9647,2.492,6.1,1111122 
SCCF RECON,ioos:station:SCCF:16:1,2010-08-02T06:00:00Z,26.4345,-81.9647,2.592,5.94,1111122 
SCCF RECON,ioos:station:SCCF:16:1,2010-08-02T07:00:00Z,26.4345,-81.9647,2.702,6.2,1111122 
SCCF RECON,ioos:station:SCCF:16:1,2010-08-02T08:00:00Z,26.4345,-81.9647,2.756,6.06,1111122 
SCCF RECON,ioos:station:SCCF:16:1,2010-08-02T09:00:00Z,26.4345,-81.9647,2.805,5.99,1111122 
SCCF RECON,ioos:station:SCCF:16:1,2010-08-02T10:00:00Z,26.4345,-81.9647,2.906,5.97,1111122 
SCCF RECON,ioos:station:SCCF:16:1,2010-08-02T11:00:00Z,26.4345,-81.9647,2.806,6.08,1111122 
SCCF RECON,ioos:station:SCCF:16:1,2010-08-02T12:00:00Z,26.4345,-81.9647,2.628,5.23,1111122 
SCCF RECON,ioos:station:SCCF:16:1,2010-08-02T13:00:00Z,26.4345,-81.9647,2.477,5.29,1111122 
SCCF RECON,ioos:station:SCCF:16:1,2010-08-02T14:00:00Z,26.4345,-81.9647,2.379,5.42,1111122 
SCCF RECON,ioos:station:SCCF:16:1,2010-08-02T15:00:00Z,26.4345,-81.9647,2.289,5.39,1111122 
SCCF RECON,ioos:station:SCCF:16:1,2010-08-02T16:00:00Z,26.4345,-81.9647,2.271,5.45,1111122 
SCCF RECON,ioos:station:SCCF:16:1,2010-08-02T17:00:00Z,26.4345,-81.9647,2.245,5.41,1111122 
SCCF RECON,ioos:station:SCCF:16:1,2010-08-02T18:00:00Z,26.4345,-81.9647,2.307,5.25,1111122 
SCCF RECON,ioos:station:SCCF:16:1,2010-08-02T19:00:00Z,26.4345,-81.9647,2.38,5.34,1111122 
SCCF RECON,ioos:station:SCCF:16:1,2010-08-02T20:00:00Z,26.4345,-81.9647,2.485,5.73,1111122 
SCCF RECON,ioos:station:SCCF:16:1,2010-08-02T21:00:00Z,26.4345,-81.9647,2.538,6.67,1111122 
SCCF RECON,ioos:station:SCCF:16:1,2010-08-02T22:00:00Z,26.4345,-81.9647,2.584,6.38,1111122 
SCCF RECON,ioos:station:SCCF:16:1,2010-08-02T23:00:00Z,26.4345,-81.9647,2.591,6.53,1111122 
SCCF RECON,ioos:station:SCCF:16:1,2010-08-03T00:00:00Z,26.4345,-81.9647,2.54,6.54,1111122 
SCCF RECON,ioos:station:SCCF:16:1,2010-08-03T01:00:00Z,26.4345,-81.9647,2.529,6.45,1111122 
SCCF RECON,ioos:station:SCCF:16:1,2010-08-03T02:00:00Z,26.4345,-81.9647,2.507,6.43,1111122 
SCCF RECON,ioos:station:SCCF:16:1,2010-08-03T03:00:00Z,26.4345,-81.9647,2.504,6.19,1111122 
SCCF RECON,ioos:station:SCCF:16:1,2010-08-03T04:00:00Z,26.4345,-81.9647,2.476,5.96,1111122 
SCCF RECON,ioos:station:SCCF:16:1,2010-08-03T05:00:00Z,26.4345,-81.9647,2.46,5.75,1111122 
SCCF RECON,ioos:station:SCCF:16:1,2010-08-03T06:00:00Z,26.4345,-81.9647,2.508,5.03,1111122 
SCCF RECON,ioos:station:SCCF:16:1,2010-08-03T07:00:00Z,26.4345,-81.9647,2.63,5.81,1111122 
SCCF RECON,ioos:station:SCCF:16:1,2010-08-03T08:00:00Z,26.4345,-81.9647,2.733,5.92,1111122 
SCCF RECON,ioos:station:SCCF:16:1,2010-08-03T09:00:00Z,26.4345,-81.9647,2.807,5.87,1111122 
SCCF RECON,ioos:station:SCCF:16:1,2010-08-03T10:00:00Z,26.4345,-81.9647,2.829,5.77,1111122 
SCCF RECON,ioos:station:SCCF:16:1,2010-08-03T11:00:00Z,26.4345,-81.9647,2.792,5.6,1111122 
SCCF RECON,ioos:station:SCCF:16:1,2010-08-03T12:00:00Z,26.4345,-81.9647,2.704,4.71,1111122 
SCCF RECON,ioos:station:SCCF:16:1,2010-08-03T13:00:00Z,26.4345,-81.9647,2.601,5.34,1111122 
SCCF RECON,ioos:station:SCCF:16:1,2010-08-03T14:00:00Z,26.4345,-81.9647,2.49,5.67,1111122 
SCCF RECON,ioos:station:SCCF:16:1,2010-08-03T15:00:00Z,26.4345,-81.9647,2.369,6.06,1111122 
SCCF RECON,ioos:station:SCCF:16:1,2010-08-03T16:00:00Z,26.4345,-81.9647,2.255,5.36,1111122 
SCCF RECON,ioos:station:SCCF:16:1,2010-08-03T17:00:00Z,26.4345,-81.9647,2.22,5.82,1111122 
SCCF RECON,ioos:station:SCCF:16:1,2010-08-03T18:00:00Z,26.4345,-81.9647,2.229,5.82,1111122 
SCCF RECON,ioos:station:SCCF:16:1,2010-08-03T19:00:00Z,26.4345,-81.9647,2.276,5.88,1111122 
SCCF RECON,ioos:station:SCCF:16:1,2010-08-03T20:00:00Z,26.4345,-81.9647,2.36,5.15,1111122 
SCCF RECON,ioos:station:SCCF:16:1,2010-08-03T21:00:00Z,26.4345,-81.9647,2.428,6.1,1111122 
SCCF RECON,ioos:station:SCCF:16:1,2010-08-03T22:00:00Z,26.4345,-81.9647,2.501,6.72,1111122 
SCCF RECON,ioos:station:SCCF:16:1,2010-08-03T23:00:00Z,26.4345,-81.9647,2.573,6.81,1111122 
SCCF RECON,ioos:station:SCCF:16:1,2010-08-04T00:00:00Z,26.4345,-81.9647,2.594,6.68,1111122 
SCCF RECON,ioos:station:SCCF:16:1,2010-08-04T01:00:00Z,26.4345,-81.9647,2.598,6.57,1111122 
SCCF RECON,ioos:station:SCCF:16:1,2010-08-04T02:00:00Z,26.4345,-81.9647,2.588,6.11,1111122 
SCCF RECON,ioos:station:SCCF:16:1,2010-08-04T03:00:00Z,26.4345,-81.9647,2.521,6.23,1111122 
SCCF RECON,ioos:station:SCCF:16:1,2010-08-04T04:00:00Z,26.4345,-81.9647,2.519,6.33,1111122 
SCCF RECON,ioos:station:SCCF:16:1,2010-08-04T05:00:00Z,26.4345,-81.9647,2.555,6.31,1111122 
SCCF RECON,ioos:station:SCCF:16:1,2010-08-04T06:00:00Z,26.4345,-81.9647,2.574,6.31,1111122 
SCCF RECON,ioos:station:SCCF:16:1,2010-08-04T07:00:00Z,26.4345,-81.9647,2.652,6.16,1111122 
SCCF RECON,ioos:station:SCCF:16:1,2010-08-04T08:00:00Z,26.4345,-81.9647,2.689,6.13,1111122 
SCCF RECON,ioos:station:SCCF:16:1,2010-08-04T09:00:00Z,26.4345,-81.9647,2.74,6.03,1111122 
SCCF RECON,ioos:station:SCCF:16:1,2010-08-04T10:00:00Z,26.4345,-81.9647,2.81,5.83,1111122 
SCCF RECON,ioos:station:SCCF:16:1,2010-08-04T11:00:00Z,26.4345,-81.9647,2.8,5.72,1111122 
SCCF RECON,ioos:station:SCCF:16:1,2010-08-04T12:00:00Z,26.4345,-81.9647,2.807,5.42,1111122 
SCCF RECON,ioos:station:SCCF:16:1,2010-08-04T13:00:00Z,26.4345,-81.9647,2.769,5.17,1111122 
SCCF RECON,ioos:station:SCCF:16:1,2010-08-04T14:00:00Z,26.4345,-81.9647,2.671,4.79,1111122 
SCCF RECON,ioos:station:SCCF:16:1,2010-08-04T15:00:00Z,26.4345,-81.9647,2.524,5.35,1111122 
SCCF RECON,ioos:station:SCCF:16:1,2010-08-04T16:00:00Z,26.4345,-81.9647,2.41,5.78,1111122 
SCCF RECON,ioos:station:SCCF:16:1,2010-08-04T17:00:00Z,26.4345,-81.9647,2.25,5.37,1111122 
SCCF RECON,ioos:station:SCCF:16:1,2010-08-04T18:00:00Z,26.4345,-81.9647,2.171,5.99,1111122 
SCCF RECON,ioos:station:SCCF:16:1,2010-08-04T19:00:00Z,26.4345,-81.9647,2.133,5.94,1111122 
SCCF RECON,ioos:station:SCCF:16:1,2010-08-04T20:00:00Z,26.4345,-81.9647,2.219,5.83,1111122 
SCCF RECON,ioos:station:SCCF:16:1,2010-08-04T21:00:00Z,26.4345,-81.9647,2.302,5.8,1111122 
SCCF RECON,ioos:station:SCCF:16:1,2010-08-04T22:00:00Z,26.4345,-81.9647,2.388,6.14,1111122 
SCCF RECON,ioos:station:SCCF:16:1,2010-08-04T23:00:00Z,26.4345,-81.9647,2.484,6.37,1111122 
SCCF RECON,ioos:station:SCCF:16:1,2010-08-05T00:00:00Z,26.4345,-81.9647,2.572,6.4,1111122 
SCCF RECON,ioos:station:SCCF:16:1,2010-08-05T01:00:00Z,26.4345,-81.9647,2.633,6.16,1111122 
SCCF RECON,ioos:station:SCCF:16:1,2010-08-05T02:00:00Z,26.4345,-81.9647,2.651,5.65,1111122 
SCCF RECON,ioos:station:SCCF:16:1,2010-08-05T03:00:00Z,26.4345,-81.9647,2.665,5.68,1111122 
SCCF RECON,ioos:station:SCCF:16:1,2010-08-05T04:00:00Z,26.4345,-81.9647,2.629,5.56,1111122 
SCCF RECON,ioos:station:SCCF:16:1,2010-08-05T05:00:00Z,26.4345,-81.9647,2.628,5.67,1111122 
SCCF RECON,ioos:station:SCCF:16:1,2010-08-05T06:00:00Z,26.4345,-81.9647,2.618,5.47,1111122 
SCCF RECON,ioos:station:SCCF:16:1,2010-08-05T07:00:00Z,26.4345,-81.9647,2.56,5.01,1111122 
SCCF RECON,ioos:station:SCCF:16:1,2010-08-05T08:00:00Z,26.4345,-81.9647,2.658,5.44,1111122 
SCCF RECON,ioos:station:SCCF:16:1,2010-08-05T09:00:00Z,26.4345,-81.9647,2.799,5.5,1111122 
SCCF RECON,ioos:station:SCCF:16:1,2010-08-05T10:00:00Z,26.4345,-81.9647,2.828,5.55,1111122 
SCCF RECON,ioos:station:SCCF:16:1,2010-08-05T11:00:00Z,26.4345,-81.9647,2.851,5.24,1111122 
SCCF RECON,ioos:station:SCCF:16:1,2010-08-05T12:00:00Z,26.4345,-81.9647,2.92,5.14,1111122 
SCCF RECON,ioos:station:SCCF:16:1,2010-08-05T13:00:00Z,26.4345,-81.9647,2.913,5.02,1111122 
SCCF RECON,ioos:station:SCCF:16:1,2010-08-05T14:00:00Z,26.4345,-81.9647,2.829,5.05,1111122 
SCCF RECON,ioos:station:SCCF:16:1,2010-08-05T15:00:00Z,26.4345,-81.9647,2.711,5.26,1111122 
SCCF RECON,ioos:station:SCCF:16:1,2010-08-05T16:00:00Z,26.4345,-81.9647,2.547,5.43,1111122 
SCCF RECON,ioos:station:SCCF:16:1,2010-08-05T17:00:00Z,26.4345,-81.9647,2.428,5.57,1111122 
SCCF RECON,ioos:station:SCCF:16:1,2010-08-05T18:00:00Z,26.4345,-81.9647,2.274,5.56,1111122 
SCCF RECON,ioos:station:SCCF:16:1,2010-08-05T19:00:00Z,26.4345,-81.9647,2.111,6.22,1111122 
SCCF RECON,ioos:station:SCCF:16:1,2010-08-05T20:00:00Z,26.4345,-81.9647,2.069,5.99,1111122 
SCCF RECON,ioos:station:SCCF:16:1,2010-08-05T21:00:00Z,26.4345,-81.9647,2.173,5.87,1111122 
SCCF RECON,ioos:station:SCCF:16:1,2010-08-05T22:00:00Z,26.4345,-81.9647,2.285,5.93,1111122 
SCCF RECON,ioos:station:SCCF:16:1,2010-08-05T23:00:00Z,26.4345,-81.9647,2.379,6.27,1111122 
SCCF RECON,ioos:station:SCCF:16:1,2010-08-06T00:00:00Z,26.4345,-81.9647,2.547,6.23,1111122 
SCCF RECON,ioos:station:SCCF:16:1,2010-08-06T01:00:00Z,26.4345,-81.9647,2.635,6.07,1111122 
SCCF RECON,ioos:station:SCCF:16:1,2010-08-06T02:00:00Z,26.4345,-81.9647,2.659,6.05,1111122 
SCCF RECON,ioos:station:SCCF:16:1,2010-08-06T03:00:00Z,26.4345,-81.9647,2.714,6.0,1111122 
SCCF RECON,ioos:station:SCCF:16:1,2010-08-06T04:00:00Z,26.4345,-81.9647,2.706,5.69,1111122 
SCCF RECON,ioos:station:SCCF:16:1,2010-08-06T05:00:00Z,26.4345,-81.9647,2.653,5.27,1111122 
SCCF RECON,ioos:station:SCCF:16:1,2010-08-06T06:00:00Z,26.4345,-81.9647,2.623,5.46,1111122 
SCCF RECON,ioos:station:SCCF:16:1,2010-08-06T07:00:00Z,26.4345,-81.9647,2.591,5.25,1111122 
SCCF RECON,ioos:station:SCCF:16:1,2010-08-06T08:00:00Z,26.4345,-81.9647,2.571,5.26,1111122 
SCCF RECON,ioos:station:SCCF:16:1,2010-08-06T09:00:00Z,26.4345,-81.9647,2.639,5.55,1111122 
SCCF RECON,ioos:station:SCCF:16:1,2010-08-06T10:00:00Z,26.4345,-81.9647,2.712,5.43,1111122 
SCCF RECON,ioos:station:SCCF:16:1,2010-08-06T11:00:00Z,26.4345,-81.9647,2.822,5.08,1111122 
SCCF RECON,ioos:station:SCCF:16:1,2010-08-06T12:00:00Z,26.4345,-81.9647,2.889,5.04,1111122 
SCCF RECON,ioos:station:SCCF:16:1,2010-08-06T13:00:00Z,26.4345,-81.9647,2.929,5.41,1111122 
SCCF RECON,ioos:station:SCCF:16:1,2010-08-06T14:00:00Z,26.4345,-81.9647,2.938,5.29,1111122 
SCCF RECON,ioos:station:SCCF:16:1,2010-08-06T15:00:00Z,26.4345,-81.9647,2.893,5.37,1111122 
SCCF RECON,ioos:station:SCCF:16:1,2010-08-06T16:00:00Z,26.4345,-81.9647,2.703,5.37,1111122 
SCCF RECON,ioos:station:SCCF:16:1,2010-08-06T17:00:00Z,26.4345,-81.9647,2.549,5.45,1111122 
SCCF RECON,ioos:station:SCCF:16:1,2010-08-06T18:00:00Z,26.4345,-81.9647,2.392,5.56,1111122 
SCCF RECON,ioos:station:SCCF:16:1,2010-08-06T19:00:00Z,26.4345,-81.9647,2.189,5.91,1111122 
SCCF RECON,ioos:station:SCCF:16:1,2010-08-06T20:00:00Z,26.4345,-81.9647,2.038,6.27,1111122 
SCCF RECON,ioos:station:SCCF:16:1,2010-08-06T21:00:00Z,26.4345,-81.9647,2.014,6.26,1111122 
SCCF RECON,ioos:station:SCCF:16:1,2010-08-06T22:00:00Z,26.4345,-81.9647,2.1,6.09,1111122 
SCCF RECON,ioos:station:SCCF:16:1,2010-08-06T23:00:00Z,26.4345,-81.9647,2.23,6.23,1111122 
SCCF RECON,ioos:station:SCCF:16:1,2010-08-07T00:00:00Z,26.4345,-81.9647,2.38,6.19,1111122 
SCCF RECON,ioos:station:SCCF:16:1,2010-08-07T01:00:00Z,26.4345,-81.9647,2.52,6.33,1111122 
SCCF RECON,ioos:station:SCCF:16:1,2010-08-07T02:00:00Z,26.4345,-81.9647,2.641,6.07,1111122 
SCCF RECON,ioos:station:SCCF:16:1,2010-08-07T03:00:00Z,26.4345,-81.9647,2.711,5.93,1111122 
SCCF RECON,ioos:station:SCCF:16:1,2010-08-07T04:00:00Z,26.4345,-81.9647,2.731,5.97,1111122 
SCCF RECON,ioos:station:SCCF:16:1,2010-08-07T05:00:00Z,26.4345,-81.9647,2.698,5.66,1111122 
SCCF RECON,ioos:station:SCCF:16:1,2010-08-07T06:00:00Z,26.4345,-81.9647,2.635,5.57,1111122 
SCCF RECON,ioos:station:SCCF:16:1,2010-08-07T07:00:00Z,26.4345,-81.9647,2.605,5.82,1111122 
SCCF RECON,ioos:station:SCCF:16:1,2010-08-07T08:00:00Z,26.4345,-81.9647,2.56,5.78,1111122 
SCCF RECON,ioos:station:SCCF:16:1,2010-08-07T09:00:00Z,26.4345,-81.9647,2.576,5.81,1111122 
SCCF RECON,ioos:station:SCCF:16:1,2010-08-07T10:00:00Z,26.4345,-81.9647,2.66,5.77,1111122 
SCCF RECON,ioos:station:SCCF:16:1,2010-08-07T11:00:00Z,26.4345,-81.9647,2.77,5.69,1111122 
SCCF RECON,ioos:station:SCCF:16:1,2010-08-07T12:00:00Z,26.4345,-81.9647,2.872,5.59,1111122 
SCCF RECON,ioos:station:SCCF:16:1,2010-08-07T13:00:00Z,26.4345,-81.9647,2.93,5.66,1111122 
SCCF RECON,ioos:station:SCCF:16:1,2010-08-07T14:00:00Z,26.4345,-81.9647,3.01,5.62,1111122 
SCCF RECON,ioos:station:SCCF:16:1,2010-08-07T15:00:00Z,26.4345,-81.9647,3.01,5.73,1111122 
SCCF RECON,ioos:station:SCCF:16:1,2010-08-07T16:00:00Z,26.4345,-81.9647,2.95,5.6,1111122 
SCCF RECON,ioos:station:SCCF:16:1,2010-08-07T17:00:00Z,26.4345,-81.9647,2.76,5.55,1111122 
SCCF RECON,ioos:station:SCCF:16:1,2010-08-07T18:00:00Z,26.4345,-81.9647,2.548,5.94,1111122 
SCCF RECON,ioos:station:SCCF:16:1,2010-08-07T19:00:00Z,26.4345,-81.9647,2.321,5.97,1111122 
SCCF RECON,ioos:station:SCCF:16:1,2010-08-07T20:00:00Z,26.4345,-81.9647,2.107,6.11,1111122 
SCCF RECON,ioos:station:SCCF:16:1,2010-08-07T21:00:00Z,26.4345,-81.9647,1.953,6.11,1111122 
SCCF RECON,ioos:station:SCCF:16:1,2010-08-07T22:00:00Z,26.4345,-81.9647,1.92,5.58,1111122 
SCCF RECON,ioos:station:SCCF:16:1,2010-08-07T23:00:00Z,26.4345,-81.9647,2.078,5.9,1111122 
SCCF RECON,ioos:station:SCCF:16:1,2010-08-08T00:00:00Z,26.4345,-81.9647,2.282,5.84,1111122 
SCCF RECON,ioos:station:SCCF:16:1,2010-08-08T01:00:00Z,26.4345,-81.9647,2.44,5.98,1111122 
SCCF RECON,ioos:station:SCCF:16:1,2010-08-08T02:00:00Z,26.4345,-81.9647,2.56,5.92,1111122 
SCCF RECON,ioos:station:SCCF:16:1,2010-08-08T03:00:00Z,26.4345,-81.9647,2.71,5.8,1111122 
SCCF RECON,ioos:station:SCCF:16:1,2010-08-08T04:00:00Z,26.4345,-81.9647,2.8,5.72,1111122 
SCCF RECON,ioos:station:SCCF:16:1,2010-08-08T05:00:00Z,26.4345,-81.9647,2.77,5.7,1111122 
SCCF RECON,ioos:station:SCCF:16:1,2010-08-08T06:00:00Z,26.4345,-81.9647,2.67,5.31,1111122 
SCCF RECON,ioos:station:SCCF:16:1,2010-08-08T07:00:00Z,26.4345,-81.9647,2.61,4.53,1111122 
SCCF RECON,ioos:station:SCCF:16:1,2010-08-08T08:00:00Z,26.4345,-81.9647,2.54,4.53,1111122 
SCCF RECON,ioos:station:SCCF:16:1,2010-08-08T09:00:00Z,26.4345,-81.9647,2.49,5.13,1111122 
SCCF RECON,ioos:station:SCCF:16:1,2010-08-08T10:00:00Z,26.4345,-81.9647,2.53,4.57,1111122 
SCCF RECON,ioos:station:SCCF:16:1,2010-08-08T11:00:00Z,26.4345,-81.9647,2.64,5.6,1111122 
SCCF RECON,ioos:station:SCCF:16:1,2010-08-08T12:00:00Z,26.4345,-81.9647,2.788,5.44,1111122 
SCCF RECON,ioos:station:SCCF:16:1,2010-08-08T13:00:00Z,26.4345,-81.9647,2.9,5.5,1111122 
SCCF RECON,ioos:station:SCCF:16:1,2010-08-08T14:00:00Z,26.4345,-81.9647,2.992,5.67,1111122 
SCCF RECON,ioos:station:SCCF:16:1,2010-08-08T15:00:00Z,26.4345,-81.9647,3.054,5.66,1111122 
SCCF RECON,ioos:station:SCCF:16:1,2010-08-08T16:00:00Z,26.4345,-81.9647,3.04,5.23,1111122 
SCCF RECON,ioos:station:SCCF:16:1,2010-08-08T17:00:00Z,26.4345,-81.9647,2.92,4.9,1111122 
SCCF RECON,ioos:station:SCCF:16:1,2010-08-08T18:00:00Z,26.4345,-81.9647,2.7,5.56,1111122 
SCCF RECON,ioos:station:SCCF:16:1,2010-08-08T19:00:00Z,26.4345,-81.9647,2.5,5.81,1111122 
SCCF RECON,ioos:station:SCCF:16:1,2010-08-08T20:00:00Z,26.4345,-81.9647,2.244,5.49,1111122 
SCCF RECON,ioos:station:SCCF:16:1,2010-08-08T21:00:00Z,26.4345,-81.9647,1.99,5.54,1111122 
SCCF RECON,ioos:station:SCCF:16:1,2010-08-08T22:00:00Z,26.4345,-81.9647,1.878,5.44,1111122 
SCCF RECON,ioos:station:SCCF:16:1,2010-08-08T23:00:00Z,26.4345,-81.9647,1.893,5.39,1111122 
SCCF RECON,ioos:station:SCCF:16:1,2010-08-09T00:00:00Z,26.4345,-81.9647,2.029,5.42,1111122 
SCCF RECON,ioos:station:SCCF:16:1,2010-08-09T01:00:00Z,26.4345,-81.9647,2.23,4.88,1111122 
SCCF RECON,ioos:station:SCCF:16:1,2010-08-09T02:00:00Z,26.4345,-81.9647,2.427,5.44,1111122 
SCCF RECON,ioos:station:SCCF:16:1,2010-08-09T03:00:00Z,26.4345,-81.9647,2.673,5.33,1111122 
SCCF RECON,ioos:station:SCCF:16:1,2010-08-09T04:00:00Z,26.4345,-81.9647,2.769,5.31,1111122 
SCCF RECON,ioos:station:SCCF:16:1,2010-08-09T05:00:00Z,26.4345,-81.9647,2.81,5.45,1111122 
SCCF RECON,ioos:station:SCCF:16:1,2010-08-09T06:00:00Z,26.4345,-81.9647,2.735,5.3,1111122 
SCCF RECON,ioos:station:SCCF:16:1,2010-08-09T07:00:00Z,26.4345,-81.9647,2.62,4.71,1111122 
SCCF RECON,ioos:station:SCCF:16:1,2010-08-09T08:00:00Z,26.4345,-81.9647,2.532,5.22,1111122 
SCCF RECON,ioos:station:SCCF:16:1,2010-08-09T09:00:00Z,26.4345,-81.9647,2.521,5.03,1111122 
SCCF RECON,ioos:station:SCCF:16:1,2010-08-09T10:00:00Z,26.4345,-81.9647,2.42,4.93,1111122 
SCCF RECON,ioos:station:SCCF:16:1,2010-08-09T11:00:00Z,26.4345,-81.9647,2.47,4.74,1111122 
SCCF RECON,ioos:station:SCCF:16:1,2010-08-09T12:00:00Z,26.4345,-81.9647,2.647,4.61,1111122 
SCCF RECON,ioos:station:SCCF:16:1,2010-08-09T13:00:00Z,26.4345,-81.9647,2.791,5.17,1111122 
SCCF RECON,ioos:station:SCCF:16:1,2010-08-09T14:00:00Z,26.4345,-81.9647,2.891,5.56,1111122 
SCCF RECON,ioos:station:SCCF:16:1,2010-08-09T15:00:00Z,26.4345,-81.9647,3.016,5.54,1111122 
SCCF RECON,ioos:station:SCCF:16:1,2010-08-09T16:00:00Z,26.4345,-81.9647,3.116,5.66,1111122 
SCCF RECON,ioos:station:SCCF:16:1,2010-08-09T17:00:00Z,26.4345,-81.9647,3.08,5.42,1111122 
SCCF RECON,ioos:station:SCCF:16:1,2010-08-09T18:00:00Z,26.4345,-81.9647,3.0,5.48,1111122 
SCCF RECON,ioos:station:SCCF:16:1,2010-08-09T19:00:00Z,26.4345,-81.9647,2.77,5.59,1111122 
SCCF RECON,ioos:station:SCCF:16:1,2010-08-09T20:00:00Z,26.4345,-81.9647,2.519,6.03,1111122 
SCCF RECON,ioos:station:SCCF:16:1,2010-08-09T21:00:00Z,26.4345,-81.9647,2.261,5.98,1111122 
SCCF RECON,ioos:station:SCCF:16:1,2010-08-09T22:00:00Z,26.4345,-81.9647,2.05,5.97,1111122 
SCCF RECON,ioos:station:SCCF:16:1,2010-08-09T23:00:00Z,26.4345,-81.9647,1.91,6.0,1111122 
SCCF RECON,ioos:station:SCCF:16:1,2010-08-10T00:00:00Z,26.4345,-81.9647,1.961,6.18,1111122 
SCCF RECON,ioos:station:SCCF:16:1,2010-08-10T01:00:00Z,26.4345,-81.9647,2.139,6.11,1111122 
SCCF RECON,ioos:station:SCCF:16:1,2010-08-10T02:00:00Z,26.4345,-81.9647,2.428,5.9,1111122 
SCCF RECON,ioos:station:SCCF:16:1,2010-08-10T03:00:00Z,26.4345,-81.9647,2.619,5.86,1111122 
SCCF RECON,ioos:station:SCCF:16:1,2010-08-10T04:00:00Z,26.4345,-81.9647,2.699,5.78,1111122 
SCCF RECON,ioos:station:SCCF:16:1,2010-08-10T05:00:00Z,26.4345,-81.9647,2.809,5.71,1111122 
SCCF RECON,ioos:station:SCCF:16:1,2010-08-10T06:00:00Z,26.4345,-81.9647,2.809,5.56,1111122 
SCCF RECON,ioos:station:SCCF:16:1,2010-08-10T07:00:00Z,26.4345,-81.9647,2.706,5.53,1111122 
SCCF RECON,ioos:station:SCCF:16:1,2010-08-10T08:00:00Z,26.4345,-81.9647,2.58,5.38,1111122 
SCCF RECON,ioos:station:SCCF:16:1,2010-08-10T09:00:00Z,26.4345,-81.9647,2.453,5.35,1111122 
SCCF RECON,ioos:station:SCCF:16:1,2010-08-10T10:00:00Z,26.4345,-81.9647,2.384,5.29,1111122 
SCCF RECON,ioos:station:SCCF:16:1,2010-08-10T11:00:00Z,26.4345,-81.9647,2.302,5.09,1111122 
SCCF RECON,ioos:station:SCCF:16:1,2010-08-10T12:00:00Z,26.4345,-81.9647,2.414,4.93,1111122 
SCCF RECON,ioos:station:SCCF:16:1,2010-08-10T13:00:00Z,26.4345,-81.9647,2.599,5.12,1111122 
SCCF RECON,ioos:station:SCCF:16:1,2010-08-10T14:00:00Z,26.4345,-81.9647,2.883,5.15,1111122 
SCCF RECON,ioos:station:SCCF:16:1,2010-08-10T15:00:00Z,26.4345,-81.9647,2.97,5.32,1111122 
SCCF RECON,ioos:station:SCCF:16:1,2010-08-10T16:00:00Z,26.4345,-81.9647,3.085,5.07,1111122 
SCCF RECON,ioos:station:SCCF:16:1,2010-08-10T17:00:00Z,26.4345,-81.9647,3.216,5.24,1111122 
SCCF RECON,ioos:station:SCCF:16:1,2010-08-10T18:00:00Z,26.4345,-81.9647,3.214,5.25,1111122 
SCCF RECON,ioos:station:SCCF:16:1,2010-08-10T19:00:00Z,26.4345,-81.9647,3.072,5.18,1111122 
SCCF RECON,ioos:station:SCCF:16:1,2010-08-10T20:00:00Z,26.4345,-81.9647,2.805,5.21,1111122 
SCCF RECON,ioos:station:SCCF:16:1,2010-08-10T21:00:00Z,26.4345,-81.9647,2.591,5.15,1111122 
SCCF RECON,ioos:station:SCCF:16:1,2010-08-10T22:00:00Z,26.4345,-81.9647,2.378,5.19,1111122 
SCCF RECON,ioos:station:SCCF:16:1,2010-08-10T23:00:00Z,26.4345,-81.9647,2.196,5.11,1111122 
SCCF RECON,ioos:station:SCCF:16:1,2010-08-11T00:00:00Z,26.4345,-81.9647,2.086,5.17,1111122 
SCCF RECON,ioos:station:SCCF:16:1,2010-08-11T01:00:00Z,26.4345,-81.9647,2.195,5.22,1111122 
SCCF RECON,ioos:station:SCCF:16:1,2010-08-11T02:00:00Z,26.4345,-81.9647,2.459,5.14,1111122 
SCCF RECON,ioos:station:SCCF:16:1,2010-08-11T03:00:00Z,26.4345,-81.9647,2.74,5.29,1111122 
SCCF RECON,ioos:station:SCCF:16:1,2010-08-11T04:00:00Z,26.4345,-81.9647,2.888,5.24,1111122 
SCCF RECON,ioos:station:SCCF:16:1,2010-08-11T05:00:00Z,26.4345,-81.9647,3.026,5.1,1111122 
SCCF RECON,ioos:station:SCCF:16:1,2010-08-11T06:00:00Z,26.4345,-81.9647,3.033,4.98,1111122 
SCCF RECON,ioos:station:SCCF:16:1,2010-08-11T07:00:00Z,26.4345,-81.9647,2.981,4.86,1111122 
SCCF RECON,ioos:station:SCCF:16:1,2010-08-11T08:00:00Z,26.4345,-81.9647,2.884,4.95,1111122 
SCCF RECON,ioos:station:SCCF:16:1,2010-08-11T09:00:00Z,26.4345,-81.9647,2.791,5.0,1111122 
SCCF RECON,ioos:station:SCCF:16:1,2010-08-11T10:00:00Z,26.4345,-81.9647,2.547,4.9,1111122 
SCCF RECON,ioos:station:SCCF:16:1,2010-08-11T11:00:00Z,26.4345,-81.9647,2.462,4.73,1111122 
SCCF RECON,ioos:station:SCCF:16:1,2010-08-11T12:00:00Z,26.4345,-81.9647,2.453,4.89,1111122 
SCCF RECON,ioos:station:SCCF:16:1,2010-08-11T13:00:00Z,26.4345,-81.9647,2.563,4.88,1111122 
SCCF RECON,ioos:station:SCCF:16:1,2010-08-11T14:00:00Z,26.4345,-81.9647,2.79,5.06,1111122 
SCCF RECON,ioos:station:SCCF:16:1,2010-08-11T15:00:00Z,26.4345,-81.9647,2.972,5.2,1111122 
SCCF RECON,ioos:station:SCCF:16:1,2010-08-11T16:00:00Z,26.4345,-81.9647,3.047,5.07,1111122 
SCCF RECON,ioos:station:SCCF:16:1,2010-08-11T17:00:00Z,26.4345,-81.9647,3.128,4.73,1111122 
SCCF RECON,ioos:station:SCCF:16:1,2010-08-11T18:00:00Z,26.4345,-81.9647,3.038,5.06,1111122 
SCCF RECON,ioos:station:SCCF:16:1,2010-08-11T19:00:00Z,26.4345,-81.9647,2.975,4.85,1111122 